Tracking 28125 objects as of 3-Oct-2023
HD Live streaming from Space Station
objects crossing your sky now

STARLINK-3091

Track STARLINK-3091 now!
10-day predictions
STARLINK-3091 is classified as:


NORAD ID: 49172
Int'l Code: 2021-082AU
Perigee: 577.0 km
Apogee: 581.3 km
Inclination: 70.0 °
Period: 96.1 minutes
Semi major axis: 6950 km
RCS: Unknown
Launch date: September 14, 2021
Source: United States (US)
Launch site: AIR FORCE WESTERN TEST RANGE (AFWTR)
Your satellite tracking list
Your tracking list is empty




NASA's NSSDC Master Catalog

Two Line Element Set (TLE):
1 49172U 21082AU  23276.22614204  .00000765  00000-0  71913-4 0  9990
2 49172  70.0003 354.5845 0003077 271.1421  88.9386 14.98334600113380
Source of the keplerian elements: AFSPC